Location: ??????????
(54.7560°N, 39.1389°E)
Time: 06:50:53
(UTC+00:00)

COSMOS 2455 - Pass Details

Date: 19 May 2025
Orbit: 900 x 908 km, 67.1° (Epoch: 15 June)

Event Time Altitude Azimuth Distance (km) Brightness Sun altitude
Rises 23:33:29 0° 318° (NW) 3,546 6.2 -10.0°
Reaches altitude 10° 23:35:59 10° 318° (NW) 2,602 5.5 -9.8°
Maximum altitude 23:42:03 89° 49° (NE) 917 2.9 -9.3°
Drops below altitude 10° 23:48:06 10° 141° (SE) 2,591 5.1 -8.8°
Sets 23:50:35 0° 141° (SE) 3,529 5.8 -8.6°
